Regional Weather Roundup
Issued by NWS

Home | Current Version | Previous Version | Graphics & Text | Print | Product List | Glossary Off
Versions: 1 2 3 4 5 6 7 8 9 10 11 12 13 14 15 16 17 18 19 20 21 22 23 24 25 26 27 28 29 30 31 32 33 34 35 36 37 38 39 40 41 42 43 44 45 46 47

000
ASUS45 KCYS 040310
RWRWY

WYOMING REGIONAL WEATHER ROUNDUP
NATIONAL WEATHER SERVICE CHEYENNE WY
900 PM MDT FRI JUL 03 2015

NOTE:  "FAIR" INDICATES FEW OR NO CLOUDS BELOW 12,000 FEET
WITH NO SIGNIFICANT WEATHER AND/OR OBSTRUCTIONS TO VISIBILITY.

WYZ001-040400-
YELLOWSTONE NATIONAL PARK

CITY           SKY/WX    TMP DP  RH WIND       PRES   REMARKS
LK YELLOWSTONE   N/A     64  45  49 CALM      30.21R
W YELLOWSTONE  NOT AVBL

$$
WYZ002>013-054>058-071-098>099-040400-
NORTHERN WYOMING

CITY           SKY/WX    TMP DP  RH WIND       PRES   REMARKS
JACKSON        FAIR      73  50  43 NW3       30.06S
CODY           FAIR      75  55  50 S5        29.99R
GREYBULL       FAIR      87  47  24 NW5       29.86R
WORLAND        FAIR      77  59  53 CALM      29.88R
SHERIDAN       FAIR      75  60  59 CALM      29.90S
BUFFALO        FAIR      74  54  49 SW7       30.00R
GILLETTE       FAIR      76  55  48 SE9       29.95R
HULETT         FAIR      70  61  73 SE7       29.97S
NEWCASTLE      FAIR      70  55  60 SE9       30.00R

$$
WYZ014>020-022>026-101>103-040400-
CENTRAL WYOMING

CITY           SKY/WX    TMP DP  RH WIND       PRES   REMARKS
BIG PINEY      FAIR      73  41  31 NW7       30.14R
PINEDALE       FAIR      70  41  35 W7        30.15R
DUBOIS         FAIR      72  34  25 NW7       30.13R
LANDER         FAIR      80  49  33 W6        29.97R HAZE
RIVERTON       FAIR      80  48  32 N17       29.97R
CASPER         FAIR      70  53  54 E9        30.00R
DOUGLAS        MOCLDY    71  52  50 S22G28    30.00F

$$
WYZ021-027>030-104>119-040400-
SOUTHERN WYOMING

CITY           SKY/WX    TMP DP  RH WIND       PRES   REMARKS
EVANSTON       FAIR      75  41  29 W9        30.16R
KEMMERER       FAIR     N/A N/A N/A NW5       30.17S
FORT BRIDGER   CLEAR     79  37  22 NW8       30.17S
ROCK SPRINGS   FAIR      80  37  21 NW12      30.09R
DIXON          FAIR      73  45  36 CALM      30.10R
RAWLINS        FAIR      72  48  42 E9        30.11R
SARATOGA       FAIR      68  43  40 SE7       30.13R
LARAMIE        FAIR      66  48  52 SE12      30.21R
CHEYENNE       FAIR      69  54  58 NW5       30.15R
TORRINGTON     FAIR      76  56  49 SE10      30.00R
PINE BLUFFS    FAIR      70  59  68 SE9       30.08R

$$



USA.gov is the U.S. government's official web portal to all federal, state and local government web resources and services.